Tracking 20083 objects as of 9-Dec-2019
HD Live streaming from Space Station
objects crossing your sky now

FENGYUN 1C DEB

Track FENGYUN 1C DEB now!
10-day predictions


NORAD ID: 35117
Int'l Code: 1999-025DKV
Perigee: 743.3 km
Apogee: 817.4 km
Inclination: 98.8 °
Period: 100.3 minutes
Semi major axis: 7151 km
RCS: 0.0112 m2 (small)
Launch date: May 10, 1999
Source: People's Republic of China (PRC)
Launch site: Taiyaun Space Center, China (TSC)

Note: This is SATELLITE DEBRIS
aabbcc
Your satellite tracking list
Your tracking list is empty




NASA's NSSDC Master Catalog

Two Line Element Set (TLE):
1 35117U 99025DKV 19342.01904257 +.00001152 +00000-0 +40995-3 0  9998
2 35117 098.7638 059.4805 0051791 304.2095 180.4206 14.35559922338872
Source of the keplerian elements: AFSPC